Regional Weather Roundup
Issued by NWS State College, PA

Home | Current Version | Previous Version | Text Only | Print | Product List | Glossary Off
Versions: 1 2 3 4 5 6 7 8 9 10 11 12 13 14 15 16 17 18 19 20 21 22 23 24 25 26 27 28 29 30 31 32 33 34 35 36 37 38 39 40 41 42 43 44 45 46 47 48 49 50

000
ASUS41 KCTP 301810
RWRCTP

REGIONAL WEATHER ROUNDUP
NATIONAL WEATHER SERVICE STATE COLLEGE PA
200 PM EDT FRI SEP 30 2016

Note: "fair" indicates few or no clouds below 12,000 feet with no
significant weather and/or obstructions to visibility.

* = STATION THAT DOES NOT REPORT PRECIPITATION /E.G. RAIN...SNOW...ETC/
    THUNDER OR FOG.

PAZ002>004-007>009-013>016-020>023-029>032-301900-
WESTERN PENNSYLVANIA

CITY           SKY/WX    TMP DP  RH WIND       PRES   REMARKS
ERIE           CLOUDY    68  58  70 E13G22    30.16F
MEADVILLE      CLOUDY    60  54  80 E14G22    30.16F
FRANKLIN*        N/A     59  52  77 E13G18    30.18F
NEW CASTLE     CLOUDY    63  56  78 E9        30.14S
BEAVER COUNTY  CLOUDY    63  55  77 E6G16     30.10F
BUTLER*        CLOUDY    63  54  72 E12G23    30.16F
PITTSBURGH INT CLOUDY    64  57  78 E10       30.11S
PITTSBURGH     CLOUDY    64  54  69 VRB6      30.11S
INDIANA*       CLOUDY    59  54  82 E14G23    30.19F
LATROBE        CLOUDY    63  55  77 E16       30.15S
WASHINGTON CO* CLOUDY    63  55  77 E6        30.10F
$$

PAZ004>006-010>012-017>019-024>028-033>037-041-042-045-046-049>053-301900-
CENTRAL PENNSYLVANIA

CITY           SKY/WX    TMP DP  RH WIND       PRES   REMARKS
BRADFORD       CLOUDY    57  57 100 E12       30.23F FOG
DUBOIS         CLOUDY    57  51  80 E14G24    30.20F
CLEARFIELD     CLOUDY    56  55  97 E10       30.22F
JOHNSTOWN      CLOUDY    54  53  97 E14G20    30.18F FOG
ALTOONA        CLOUDY    54  54 100 E9        30.21F
STATE COLLEGE  CLOUDY    55  54  94 E8        30.24F FOG
WILLIAMSPORT   LGT RAIN  58  57  97 E6        30.25F FOG
SELINSGROVE    LGT RAIN  56  56 100 NE6       30.26F FOG
FT INDIANTOWN  CLOUDY    56  54  92 E10G18    30.23F
CAPITAL CITY   CLOUDY    58  53  84 E9        30.23F
HARRISBURG     CLOUDY    57  55  93 VRB6      30.22F
YORK           LGT RAIN  57  57 100 E10       30.20F FOG
$$

PAZ038>040-043-044-047-048-054-055-060>062-067>071-301900-
EASTERN PENNSYLVANIA

CITY           SKY/WX    TMP DP  RH WIND       PRES   REMARKS
SCRANTON       CLOUDY    57  51  80 E13G20    30.27F
MOUNT POCONO   CLOUDY    51  49  92 E20G25    30.28F
ALLENTOWN      CLOUDY    58  53  84 NE18G26   30.25F
QUAKERTOWN*    CLOUDY    59  55  88 NE9G20    30.24F
READING        CLOUDY    57  53  86 N8        30.23F
LANCASTER      CLOUDY    59  57  93 E16       30.21F
COATESVILLE    CLOUDY    57  55  94 NE7G20    30.22F FOG
POTTSTOWN      CLOUDY    58  55  90 NE9       30.24F
BLUE BELL      CLOUDY    57  55  94 E12       30.21F
DOYLESTOWN     CLOUDY    61  57  87 NE8G17    30.22F
WILLOW GROVE   NOT AVBL
NORTH PHILA    CLOUDY    62  60  93 NE16      30.23F FOG
PHILADELPHIA   DRIZZLE   62  60  93 NE14      30.20F FOG
$$




USA.gov is the U.S. government's official web portal to all federal, state and local government web resources and services.